Theta_e
311 311 311 311 310 310 310 309 308 308 308 308 308 308 308 308 309 309 309 309 310 310 310 311 310 311 311 311 311 312 312 313 314 314 317 318 315 314 315 314 315 314 313 313 313 315 315 315 316 315 317 318 318 320 321 317 314 320 325 323 320 321 318 318 320 320 320 319 318 317 317 318 318 317 317 317 316 317 317 316 316 315 314 314 313 313 313 314
309 309 309 309 309 308 308 308 308 308 308 308 308 308 308 309 309 309 310 310 310 310 310 310 310 311 311 311 311 311 312 313 314 318 319 316 314 315 315 314 314 313 314 314 315 315 315 316 316 315 316 318 318 319 321 321 317 320 325 321 320 320 317 318 319 319 319 319 318 318 317 317 317 317 317 316 317 317 317 316 315 315 315 315 314 313 313 313
307 308 307 308 307 307 308 308 308 308 308 308 309 309 309 309 309 310 310 310 310 310 310 310 311 310 310 311 311 311 313 313 316 320 320 315 314 315 314 314 314 315 316 316 317 316 316 316 316 316 316 317 318 317 318 321 320 319 321 321 320 318 317 317 318 318 318 318 318 318 317 316 317 317 316 316 317 317 316 316 316 316 316 315 314 313 313 313
308 308 308 308 308 308 308 308 308 308 308 309 309 309 309 309 310 310 310 310 310 310 310 310 310 310 311 311 311 312 313 315 318 320 317 314 314 314 314 314 314 315 315 315 317 317 316 316 316 316 316 317 318 317 317 319 320 318 319 320 319 316 317 317 317 318 317 318 318 317 316 316 317 316 316 316 317 317 315 315 315 316 315 314 314 313 313 313
308 308 308 308 308 308 308 308 308 309 309 309 309 309 309 309 309 310 310 310 310 310 310 310 310 311 311 311 312 312 314 317 318 316 314 314 314 314 314 314 314 314 314 314 316 317 316 316 316 316 316 318 319 317 318 318 317 317 318 319 318 317 318 317 317 317 316 316 316 317 316 317 317 316 316 316 317 317 315 314 313 313 313 313 312 312 312 313
309 308 308 308 308 308 308 308 309 309 309 309 309 309 309 309 310 310 310 310 310 310 310 310 310 311 311 311 312 313 316 318 318 315 314 314 314 314 314 313 314 314 314 315 316 318 318 317 316 317 318 318 319 318 317 318 317 318 318 318 318 318 318 318 317 316 316 316 316 317 316 317 316 316 317 316 317 317 315 314 312 312 312 311 311 312 312 312
309 309 308 308 308 308 309 308 309 309 309 309 309 309 309 309 310 310 310 310 310 310 310 310 310 310 311 311 313 316 319 319 318 317 315 314 314 314 314 315 315 316 317 317 317 318 317 318 317 317 318 318 318 318 317 317 316 317 318 318 318 317 318 318 318 316 315 316 316 317 316 316 316 316 316 316 316 315 314 313 312 311 311 311 312 312 312 312
311 310 309 309 308 308 308 308 309 308 309 309 309 309 309 309 310 310 310 310 310 310 310 310 310 311 312 312 316 319 320 320 319 318 317 316 316 315 316 317 317 318 317 317 317 318 318 318 318 317 318 317 317 317 317 316 317 317 318 318 318 317 317 317 317 316 315 316 316 316 316 316 316 316 315 315 314 314 313 312 311 311 311 311 312 312 312 312
312 311 310 309 309 308 308 308 308 309 308 309 309 309 309 309 309 309 310 310 309 310 310 310 311 312 313 314 319 320 320 322 321 320 320 318 317 317 318 318 318 318 317 317 317 318 318 318 318 317 317 317 317 317 316 316 317 317 317 317 317 317 317 317 317 316 316 316 316 316 315 316 316 316 315 315 314 314 312 311 311 312 311 311 312 312 312 312
311 311 311 311 310 309 309 308 308 308 308 309 309 309 309 309 309 309 309 309 310 310 310 311 313 314 315 317 320 320 322 323 321 320 320 319 319 318 318 318 318 317 317 318 318 318 318 318 318 317 317 317 317 317 316 316 316 316 317 316 317 317 317 317 317 317 317 316 316 315 315 316 315 315 316 314 314 313 311 311 311 312 312 311 311 311 312 312
310 311 311 311 311 310 309 309 308 309 308 308 308 309 309 309 309 309 309 309 310 311 312 314 315 316 317 319 320 321 322 322 321 320 319 319 319 319 319 318 318 318 318 318 318 318 318 318 318 317 317 317 317 316 316 316 316 316 316 316 316 317 317 317 317 317 317 316 316 315 315 315 314 315 315 314 313 311 311 311 311 312 312 311 311 311 311 311
310 310 311 311 311 311 310 309 309 309 308 308 308 308 308 309 308 309 309 310 312 313 315 316 318 318 318 319 320 320 321 321 321 320 319 319 318 318 318 318 318 318 318 318 318 318 318 318 317 317 316 316 317 317 316 316 315 316 316 316 317 317 317 317 317 317 317 316 316 315 316 316 314 314 314 313 312 311 312 312 312 312 312 311 311 311 311 311
309 309 310 310 311 310 310 309 309 308 308 308 308 308 308 308 309 310 311 312 314 316 317 318 319 319 318 319 320 320 321 321 320 319 319 318 318 317 317 317 317 318 318 318 318 318 319 318 316 316 317 317 317 317 316 315 315 316 316 316 317 318 319 319 317 317 316 316 315 315 317 319 315 313 313 312 312 312 313 313 312 312 312 311 311 311 311 311
308 309 309 309 310 310 310 309 308 308 308 308 308 308 308 309 310 311 313 315 316 317 318 319 319 318 318 319 319 320 319 319 319 318 318 318 317 317 317 317 317 317 317 317 317 317 318 317 316 317 317 317 317 316 316 316 316 316 317 318 319 319 319 318 317 316 315 315 314 315 318 320 316 313 312 312 312 312 313 313 313 312 311 311 311 311 311 310
308 308 308 308 309 309 308 308 308 307 308 308 308 309 310 311 312 314 315 316 318 318 318 318 317 317 318 319 319 319 318 318 318 318 317 317 317 317 317 317 317 317 317 317 317 317 317 316 316 317 316 316 316 316 317 318 317 317 318 320 320 320 319 318 316 316 316 315 314 315 318 319 315 313 312 312 312 313 314 314 313 312 312 311 311 310 310 310
308 307 307 307 308 308 307 307 307 307 308 308 310 311 312 314 315 316 317 317 318 318 317 318 317 316 318 319 319 319 319 318 317 317 317 317 317 318 318 317 317 317 317 317 316 316 316 316 316 317 316 316 316 317 319 320 320 320 320 321 321 321 320 318 316 316 316 314 313 315 318 318 316 314 312 312 312 313 314 314 313 313 312 311 311 310 310 310
307 307 306 306 306 307 307 307 307 308 308 310 312 314 315 316 316 317 317 317 317 316 315 317 318 317 317 318 318 318 318 318 318 317 317 317 317 317 317 317 317 317 317 316 315 315 315 316 317 317 317 317 317 319 321 322 322 322 321 321 321 322 320 319 318 317 317 315 315 315 316 317 317 314 313 312 312 313 314 314 313 313 312 311 311 310 310 310
307 306 306 306 306 306 306 307 308 309 311 313 315 316 316 316 316 316 316 315 315 315 315 315 317 318 319 319 318 318 318 318 318 317 317 316 316 316 317 317 316 316 316 315 316 316 316 316 316 318 319 318 317 319 322 323 322 323 323 322 322 322 321 320 319 317 316 316 316 317 316 317 317 314 313 312 312 312 313 314 314 312 311 311 310 310 310 309
306 306 306 306 306 306 307 307 309 311 314 315 316 316 315 315 315 315 315 314 315 318 318 318 317 318 320 320 319 318 319 318 317 317 317 316 316 316 316 316 316 316 316 317 317 316 316 317 318 320 320 319 318 318 320 321 321 322 323 322 322 322 322 321 318 316 316 317 317 318 318 318 318 315 313 313 312 313 313 314 314 312 311 311 310 310 309 309
306 306 306 307 307 307 307 309 312 314 315 315 315 315 316 317 319 318 317 315 316 318 319 320 319 318 319 320 319 318 318 318 317 317 317 317 316 316 316 316 317 317 317 319 319 317 317 320 321 321 320 319 319 319 319 320 320 320 321 322 322 322 321 320 318 316 316 318 319 319 320 320 320 317 314 313 313 313 314 314 313 312 311 310 310 309 309 308
307 307 307 307 307 308 309 311 314 315 315 315 314 315 318 321 321 321 320 319 319 318 318 319 319 319 319 319 319 319 318 318 318 318 318 317 317 317 317 316 317 318 318 319 320 317 317 320 321 320 319 319 320 320 320 320 319 320 321 321 322 322 322 321 318 316 316 318 319 319 320 319 320 320 315 312 313 312 313 314 312 312 311 310 310 309 309 308
307 307 307 307 308 308 310 312 315 315 315 314 314 315 319 321 320 320 320 319 320 320 319 319 318 318 319 320 319 319 319 318 318 318 318 317 316 317 317 317 318 319 319 319 320 319 320 320 319 319 319 319 320 320 320 320 320 321 321 321 322 322 322 321 318 316 315 318 320 319 320 319 319 321 316 312 312 313 313 314 313 312 311 310 310 309 308 308
308 308 307 308 309 310 312 314 315 315 314 314 315 315 316 319 319 318 318 317 318 318 319 319 318 318 319 319 319 318 319 319 318 319 318 317 317 317 318 317 318 319 320 320 321 322 322 321 319 319 320 320 320 319 320 320 320 322 321 321 322 321 323 323 318 316 316 317 319 319 319 319 319 320 317 313 313 313 313 313 313 312 311 310 310 309 308 307
308 307 308 309 311 313 314 315 315 315 315 314 315 314 315 317 317 316 316 317 318 318 318 319 319 319 319 319 318 318 318 318 318 319 319 318 317 318 318 317 318 319 320 319 320 322 322 321 319 319 320 321 321 320 320 320 320 322 323 322 322 322 323 323 320 317 317 318 318 318 320 320 319 320 318 314 314 313 312 312 312 311 310 310 309 308 308 307
307 308 310 312 313 314 316 316 316 316 315 315 315 315 315 315 316 315 316 319 320 321 321 321 321 321 320 319 319 318 318 317 318 320 319 319 318 318 318 318 319 319 320 320 320 320 321 320 321 322 321 321 322 321 322 322 320 322 323 322 321 322 322 324 324 321 321 323 320 319 324 327 322 321 320 316 314 312 310 309 309 310 309 309 308 308 307 307
308 310 311 313 315 316 317 317 317 315 315 315 316 315 314 314 316 316 318 321 322 323 324 324 323 323 321 321 320 319 320 319 319 320 320 320 319 319 319 318 318 319 320 321 320 320 320 319 321 324 323 323 324 322 323 323 321 322 326 326 322 321 323 325 325 325 326 326 321 319 325 328 323 322 322 316 313 313 311 309 309 309 308 308 308 307 307 306
311 312 313 315 317 318 318 317 316 315 315 316 315 314 314 315 316 317 320 324 324 324 325 324 323 323 321 321 320 320 322 321 319 319 319 319 318 318 319 319 319 319 319 320 323 322 320 320 323 324 324 325 323 321 323 322 322 324 326 326 324 322 324 325 325 326 326 324 321 319 322 324 322 322 320 315 313 314 312 310 309 309 308 308 307 307 306 306
314 314 314 316 317 318 318 318 316 315 315 317 315 314 314 316 317 319 323 326 326 324 324 321 320 320 320 321 321 320 320 320 320 319 318 318 318 317 318 318 319 319 317 320 324 323 320 321 325 325 324 324 322 321 325 323 322 325 324 324 324 323 323 324 324 326 324 323 323 322 321 323 324 322 318 315 316 316 313 311 309 309 308 307 307 307 306 306
315 315 315 316 318 319 318 318 317 316 315 316 315 313 315 316 318 321 323 325 326 324 322 320 319 319 320 320 320 320 317 317 318 317 316 317 317 316 317 318 318 319 318 319 322 324 321 318 320 323 323 322 321 322 326 326 323 322 322 322 323 322 322 322 323 324 322 322 323 323 322 323 325 324 319 317 318 318 315 313 310 309 309 307 307 306 306 305
316 317 316 316 317 319 318 317 317 316 315 315 315 314 317 318 320 324 324 325 325 323 319 317 319 319 319 320 320 319 316 315 315 315 316 316 316 316 316 317 317 319 321 321 321 321 317 315 315 319 320 319 319 318 319 323 321 319 322 323 322 322 321 321 322 322 322 322 323 322 322 322 324 325 320 319 320 318 317 316 311 309 309 307 307 306 305 305
315 317 318 317 317 318 317 316 316 316 315 315 315 316 318 321 323 326 325 323 322 322 317 316 319 319 319 321 321 319 317 316 314 315 315 315 315 315 316 318 318 320 322 322 322 319 316 317 318 317 316 316 319 319 315 316 318 319 322 323 323 322 320 320 321 321 322 324 323 323 322 321 323 324 320 320 319 318 319 318 312 310 309 307 307 306 305 305
316 316 318 320 319 318 317 316 315 315 315 316 316 317 321 323 324 326 324 321 321 322 320 319 319 319 320 322 322 320 319 317 315 316 316 316 316 315 316 320 320 322 324 322 322 322 320 320 319 318 316 315 321 322 317 316 318 321 323 324 325 325 322 323 323 322 323 323 320 321 322 322 322 322 320 320 318 317 318 316 312 310 309 307 306 306 304 304
318 317 318 320 320 317 316 316 314 314 316 317 317 319 323 324 324 324 322 321 323 322 321 320 319 320 320 322 323 320 320 319 316 316 318 317 317 317 317 319 320 323 326 323 322 324 323 321 320 319 317 316 320 321 320 319 319 320 322 323 326 326 324 326 325 324 326 322 316 317 321 323 324 322 320 319 316 313 313 313 312 311 309 307 306 305 304 304
319 319 319 320 319 316 315 315 314 314 316 318 318 320 324 324 324 324 322 322 322 321 320 320 320 321 321 322 323 320 320 320 316 317 319 318 319 319 318 319 319 322 323 323 323 324 325 325 322 320 318 317 318 319 320 320 318 318 320 322 324 325 327 328 326 326 327 322 315 316 322 325 325 322 317 313 310 308 310 312 312 310 308 307 306 304 304 304
319 319 319 320 319 316 315 316 315 314 316 318 320 322 323 323 323 324 323 322 321 320 319 320 321 322 323 323 321 319 321 322 318 318 320 320 320 320 319 319 319 320 322 324 325 323 324 327 322 318 317 317 318 318 319 320 319 318 319 322 323 323 325 326 323 320 321 320 317 317 322 323 319 316 311 308 308 308 309 310 309 308 307 306 305 304 304 304
320 319 319 320 320 318 317 317 315 315 316 319 321 322 322 322 323 323 323 322 321 320 320 322 322 323 324 324 321 320 321 321 320 320 320 320 320 320 321 320 318 319 321 323 325 325 325 326 322 317 316 315 316 318 319 320 321 320 320 322 322 321 322 324 322 318 318 322 321 319 320 318 315 315 311 309 311 309 308 309 308 307 306 305 304 304 303 304
320 319 319 319 319 319 318 318 316 315 316 319 322 322 320 321 323 323 323 322 321 320 321 323 323 323 324 324 321 320 321 321 320 320 321 320 321 321 321 321 319 319 320 322 325 327 327 325 320 317 318 315 312 315 318 317 318 321 322 321 321 322 320 320 322 321 322 324 323 320 320 319 318 319 313 310 313 311 308 309 308 306 306 304 304 303 303 304
321 320 320 319 319 319 318 318 317 315 317 319 320 320 319 321 322 323 323 322 321 321 321 323 323 322 324 325 323 320 320 322 320 320 322 321 321 322 320 321 321 319 319 321 323 325 326 325 319 316 318 315 311 315 319 316 314 317 318 318 320 323 322 320 322 323 324 324 323 321 321 319 319 319 315 312 313 311 308 309 309 307 305 304 304 303 303 303
321 319 319 319 319 319 318 318 317 315 317 320 319 318 319 320 321 322 322 321 321 322 322 322 323 323 323 324 323 321 320 322 321 320 322 322 322 322 320 321 322 321 319 320 322 323 324 326 322 315 314 314 313 316 320 319 315 314 314 316 319 321 322 322 321 322 324 324 323 323 323 322 320 318 317 315 313 311 308 308 309 307 305 305 305 304 303 303
320 318 318 320 319 319 319 318 317 315 317 319 318 318 319 319 320 321 321 320 321 322 322 323 323 323 324 323 323 321 319 321 322 320 322 322 321 322 321 320 322 322 320 320 321 322 322 325 323 316 313 315 316 316 318 319 317 315 316 318 319 318 319 321 321 320 322 323 323 323 323 325 321 316 316 315 312 311 310 308 308 306 306 306 305 304 304 303
319 318 319 320 319 319 318 317 316 316 317 318 318 318 319 319 320 321 320 320 321 320 321 324 325 324 323 322 322 320 318 319 320 320 321 320 321 323 320 319 322 322 323 323 323 322 321 322 322 317 314 316 317 316 316 318 318 317 316 317 318 318 319 321 321 320 319 321 323 322 323 325 320 313 314 316 314 312 310 308 308 306 306 307 306 305 304 304
318 318 319 319 319 319 318 316 316 316 316 316 316 317 318 318 320 321 321 320 321 320 319 322 326 325 323 323 321 319 317 317 317 319 319 318 320 323 318 316 319 320 321 322 320 319 319 320 321 320 317 316 316 315 314 315 317 318 316 317 318 318 318 320 322 322 321 320 321 321 322 324 318 313 314 315 314 312 310 308 307 307 307 307 306 306 304 305
317 318 318 318 318 318 318 317 317 317 316 315 315 316 317 318 319 320 321 320 320 320 320 321 323 323 323 323 321 318 318 317 317 318 318 319 320 317 313 314 318 318 318 319 318 317 318 319 321 321 319 317 314 313 312 312 314 317 317 317 317 317 318 319 320 321 321 321 320 320 321 320 316 313 312 309 309 311 310 309 309 308 308 307 307 307 305 305
317 316 317 318 318 318 318 318 317 316 315 315 315 316 317 317 318 319 320 319 319 320 320 320 320 321 322 322 320 318 318 319 319 317 318 320 317 310 309 313 317 318 318 318 318 318 318 320 321 321 322 321 317 315 315 314 313 315 317 317 316 317 318 318 317 318 320 320 320 320 321 320 316 314 311 308 309 310 309 310 311 309 309 308 308 307 306 306
316 315 315 316 317 317 317 317 316 315 314 315 316 316 317 317 317 318 320 319 318 319 319 320 320 321 321 321 320 319 318 319 321 318 317 319 316 308 307 310 312 316 317 315 315 317 319 320 320 321 323 324 322 321 319 316 314 314 315 315 316 317 318 318 317 318 318 320 321 320 320 318 313 312 311 310 311 310 308 309 310 310 310 309 308 308 307 306
314 315 314 314 314 314 314 316 315 315 315 314 315 315 315 317 317 317 318 319 318 318 318 319 320 320 320 320 320 320 319 318 320 320 317 318 316 309 305 306 308 312 313 312 313 316 319 320 319 320 322 322 323 321 318 317 316 315 315 315 316 317 317 318 318 318 319 320 320 320 320 317 314 312 312 312 311 311 309 308 308 309 309 309 308 308 307 307
313 314 314 313 313 312 312 313 314 315 315 314 314 314 314 315 316 316 317 318 318 317 317 316 318 320 320 320 320 320 319 318 319 319 317 317 314 308 305 305 307 308 309 309 311 315 318 318 317 319 319 320 320 318 315 316 316 316 316 315 315 316 317 318 318 318 319 320 319 319 320 321 317 313 314 314 313 312 309 306 307 308 309 308 308 308 307 307
313 314 314 314 314 314 313 313 314 315 315 314 314 314 313 314 315 316 316 316 316 317 317 316 316 318 319 319 320 320 319 319 318 317 317 316 314 310 308 307 306 306 308 309 309 313 317 317 316 317 317 318 318 315 314 315 316 316 316 316 315 315 316 317 317 317 318 319 319 320 321 321 316 312 314 315 312 311 309 307 307 308 308 308 308 307 307 307
311 312 312 312 314 314 313 313 313 315 316 315 314 315 315 314 315 315 315 315 315 316 317 317 316 316 318 319 319 319 319 319 319 317 316 316 315 313 312 312 308 305 307 310 309 310 314 316 315 316 316 317 317 315 313 313 314 315 315 315 315 315 315 315 316 316 317 317 318 319 320 320 316 313 313 313 310 309 309 308 307 307 307 307 307 307 307 307
310 311 311 311 311 311 312 313 313 314 316 315 315 315 315 315 315 315 314 314 316 316 316 317 317 316 317 318 318 318 317 317 319 317 316 316 314 313 314 314 311 306 306 310 310 309 313 315 313 313 315 315 315 315 314 313 313 314 314 315 315 314 314 314 314 315 316 316 316 316 317 318 315 313 312 310 309 309 309 308 308 308 308 308 308 308 308 307
309 310 311 311 311 311 312 313 314 315 315 315 315 315 314 314 315 315 314 314 315 315 315 316 317 315 315 316 317 317 316 316 317 316 314 315 314 313 314 313 312 309 307 309 310 310 311 312 311 312 315 316 315 315 314 312 312 313 313 314 314 314 314 314 314 315 314 315 316 315 316 316 315 313 310 308 308 309 308 308 309 309 310 310 309 309 308 307
308 309 309 310 312 312 313 314 314 314 314 314 314 315 314 314 314 315 315 313 312 313 314 315 315 314 314 315 316 316 315 314 313 312 312 313 312 312 312 311 311 311 308 308 309 309 309 311 312 312 315 315 312 312 312 311 312 314 315 315 314 313 314 314 314 314 313 313 314 314 315 316 315 314 312 310 310 310 308 309 310 309 310 309 309 309 308 307
Wind_Speed
11 11 11 10 10 10 10 10 10 10 9 9 8 8 8 7 7 6 6 5 4 3 2 2 3 4 5 5 5 6 7 9 10 10 7 6 8 7 7 5 2 1 3 4 4 5 5 4 2 3 4 3 3 3 4 5 4 2 1 1 3 1 2 2 3 4 5 6 4 5 2 2 3 6 4 1 4 5 5 9 5 1 2 1 1 3 5 4
11 11 11 11 11 11 10 10 10 9 9 9 9 8 8 7 7 6 6 4 3 3 2 3 4 5 5 5 6 8 8 10 10 6 7 9 7 5 4 3 3 4 5 4 4 3 3 2 2 4 4 3 1 2 1 3 4 2 1 1 2 2 3 4 7 6 3 6 7 6 3 2 1 3 2 1 5 7 5 9 7 5 5 0 1 3 3 2
11 11 11 11 11 11 10 10 10 9 9 9 9 8 8 7 7 6 5 4 3 3 3 4 4 5 5 6 7 8 10 13 9 3 7 9 4 2 4 7 8 7 6 6 6 2 1 1 2 3 5 3 1 2 0 1 3 0 1 2 2 3 5 6 8 8 7 6 5 5 3 1 1 1 1 2 4 4 2 7 8 9 7 2 2 4 3 3
11 11 11 11 11 11 10 10 10 10 10 9 9 9 8 8 7 6 5 5 4 4 4 4 4 5 5 6 7 9 13 12 4 2 5 4 3 7 10 11 9 8 6 7 7 5 3 2 3 3 5 4 2 1 1 1 2 2 1 2 3 2 3 5 8 8 6 5 3 4 1 3 2 1 2 3 4 1 5 6 7 9 6 4 3 4 4 4
11 11 11 11 11 11 11 11 11 11 10 10 10 9 9 8 7 6 6 5 5 4 4 5 5 5 6 7 8 10 12 6 2 2 2 2 6 9 11 9 7 5 5 6 7 7 5 3 4 3 4 3 3 1 1 3 3 3 1 5 4 3 2 6 8 6 4 3 2 1 1 1 3 2 4 4 3 2 4 3 3 3 4 5 4 5 6 4
12 12 12 12 12 12 12 12 12 12 11 11 10 10 9 8 8 7 6 6 5 5 5 5 5 6 6 7 8 11 9 3 2 3 2 3 4 6 6 3 1 3 7 8 7 7 6 3 4 4 5 3 1 2 3 2 2 2 2 6 6 4 3 6 6 4 3 1 2 3 2 1 1 5 6 5 3 3 5 4 3 3 4 4 5 6 6 4
13 13 13 13 13 13 13 13 13 12 12 12 11 10 10 9 8 7 7 6 6 5 5 5 6 6 6 8 9 9 6 3 4 4 2 2 3 3 2 3 5 7 6 6 5 5 5 4 4 4 5 4 1 3 3 1 2 2 1 5 6 3 3 5 6 5 3 4 4 4 3 4 5 5 5 6 5 6 7 6 5 2 4 5 6 6 5 4
14 14 14 14 13 13 13 13 13 13 13 12 12 11 10 9 8 8 7 7 6 6 6 6 6 6 7 8 8 7 6 6 6 5 5 6 7 6 7 8 8 7 4 2 2 3 3 4 5 4 4 2 3 2 2 2 4 4 1 4 4 0 1 4 5 5 6 6 6 6 5 8 10 6 4 7 8 9 8 5 4 4 6 6 5 4 3 3
15 15 15 15 15 14 14 14 14 14 13 12 12 11 10 10 9 8 8 7 7 6 6 6 7 6 8 7 5 5 5 5 6 6 7 8 8 8 8 8 7 5 4 3 2 2 3 3 3 3 4 4 3 2 2 2 2 1 4 3 2 2 3 5 7 8 8 9 8 7 8 11 11 7 2 7 11 9 7 6 5 6 5 4 3 3 3 4
17 17 16 16 16 16 15 15 15 14 13 13 12 11 11 10 9 9 8 8 7 7 7 7 7 6 8 5 2 3 3 4 4 5 6 7 8 8 9 8 7 4 1 3 2 1 2 3 2 2 4 4 3 1 2 1 1 4 5 5 6 8 8 7 8 10 9 9 10 8 7 9 9 7 2 7 12 9 7 8 7 6 4 3 3 3 4 6
18 18 18 18 17 17 16 16 15 15 14 13 13 12 11 11 10 9 8 8 8 7 7 7 7 7 7 4 3 5 5 6 6 5 5 6 6 7 8 7 6 4 1 2 3 1 3 4 3 3 3 2 1 1 0 1 1 4 5 6 9 13 13 11 10 11 9 5 10 10 7 4 7 4 5 11 13 10 10 8 8 6 4 4 4 5 6 6
19 19 19 19 18 18 17 17 16 16 15 14 13 13 12 11 10 9 9 8 8 7 7 7 8 7 7 6 9 11 9 10 10 9 9 8 8 8 7 6 5 4 2 1 3 4 4 3 4 3 2 3 3 1 1 1 1 4 4 4 8 9 9 14 13 12 10 4 7 8 4 5 7 4 7 14 14 12 10 8 8 6 5 4 5 6 7 6
20 20 20 20 20 19 18 17 17 17 16 15 14 13 12 11 10 10 9 8 8 8 8 8 8 8 8 7 10 12 11 13 14 13 14 13 12 10 9 8 6 5 3 4 5 4 3 3 4 2 3 4 3 1 1 1 1 3 4 3 4 5 5 12 13 11 9 4 7 8 1 5 6 7 11 14 15 14 11 9 9 7 5 4 4 5 6 6
20 21 21 21 21 20 18 18 18 17 17 16 15 14 12 11 10 10 9 9 8 8 8 8 8 8 8 8 10 12 12 14 14 14 14 12 12 12 11 10 8 8 7 7 7 5 4 4 5 4 4 4 2 1 1 1 3 2 4 3 2 3 3 3 9 11 7 4 9 8 2 4 4 9 12 13 14 15 12 11 10 8 7 6 6 5 5 5
21 21 22 22 21 20 19 18 18 17 17 16 14 13 12 11 10 10 9 9 9 8 8 8 8 7 7 9 11 12 13 14 15 17 15 13 12 11 12 11 10 10 9 9 7 6 5 5 5 3 2 4 2 1 2 3 3 3 2 3 2 3 2 1 8 12 6 3 10 7 2 2 4 9 12 13 14 13 12 12 11 10 9 8 7 6 7 6
22 21 22 22 21 20 19 19 18 17 17 15 13 12 12 11 10 10 10 9 9 8 7 6 7 6 5 8 11 11 12 13 14 15 14 14 11 10 12 10 7 7 6 5 5 5 5 5 4 3 2 3 3 2 2 3 3 3 3 3 3 4 4 2 5 10 6 5 8 7 3 1 3 10 13 14 16 14 12 13 12 11 10 9 9 9 8 7
23 22 22 22 22 21 20 20 18 17 16 15 13 12 12 11 10 10 10 9 8 7 6 4 4 6 7 9 10 11 13 13 13 12 11 12 12 12 11 6 4 5 3 4 5 6 6 6 3 3 4 3 3 3 2 3 4 4 4 4 5 5 5 2 1 6 6 4 6 7 6 4 3 11 15 16 17 16 14 14 14 13 11 11 10 10 8 6
23 23 22 22 22 21 21 20 19 17 16 14 13 12 12 11 10 10 10 9 8 5 5 7 5 3 8 12 11 10 12 11 10 10 10 10 12 11 7 3 3 4 5 5 6 7 6 5 3 2 3 4 4 4 4 4 5 4 4 3 4 4 6 4 1 5 8 5 5 6 7 7 5 10 14 17 18 18 17 15 16 14 12 13 12 10 10 9
24 23 22 22 22 22 21 20 18 17 15 13 12 11 11 9 8 9 10 9 9 5 3 8 11 4 2 7 11 10 10 9 8 9 10 10 10 10 8 5 5 7 7 4 5 9 8 4 3 1 4 5 5 6 7 7 5 6 4 1 3 3 4 3 3 5 6 3 5 6 7 7 5 8 12 16 18 18 16 15 16 15 14 14 12 12 11 11
25 24 23 22 22 22 21 20 18 16 16 14 12 10 7 6 4 5 10 14 16 15 10 7 11 10 5 4 8 9 9 8 7 9 11 11 10 11 10 7 7 7 5 4 5 8 8 4 3 5 7 7 7 9 10 9 8 8 4 2 5 4 5 3 3 4 2 2 5 6 6 8 6 6 12 17 17 15 15 14 16 16 15 15 13 13 12 12
25 25 23 23 22 22 21 19 17 16 16 15 15 12 6 5 4 2 7 12 16 18 18 14 13 14 11 8 9 8 7 6 8 9 9 10 11 9 10 10 7 4 7 6 4 3 5 5 6 9 9 8 7 8 10 9 9 8 4 4 5 3 6 5 2 4 3 2 4 6 7 9 9 7 11 17 14 13 17 17 17 17 16 15 15 14 13 14
26 25 24 23 23 21 21 18 16 17 16 16 18 15 10 9 8 5 3 7 11 12 16 18 17 17 15 14 13 10 8 7 8 11 10 13 14 9 11 11 5 4 6 7 4 3 4 6 8 11 9 8 9 7 6 7 7 7 3 2 4 3 5 3 3 3 3 1 3 5 7 8 9 8 10 17 15 15 21 19 18 19 18 17 16 16 15 14
27 26 24 23 22 21 20 18 16 17 18 18 18 18 14 11 10 8 5 6 10 14 18 19 21 23 19 17 19 18 14 10 10 14 15 16 17 13 12 10 6 6 6 7 6 4 5 6 10 14 11 8 9 5 3 4 2 4 3 2 4 3 4 3 1 2 3 2 3 4 6 6 7 6 6 16 18 14 16 16 16 18 18 17 17 16 16 14
27 26 25 23 21 20 18 16 17 18 18 19 19 18 16 11 9 8 6 6 8 12 19 21 22 26 25 20 21 22 20 16 13 15 19 20 18 13 11 10 8 6 6 9 10 9 9 5 6 12 11 8 7 5 4 2 2 4 6 6 5 4 6 5 2 2 2 3 4 3 6 6 8 10 7 9 11 8 10 12 13 15 16 15 16 16 14 14
28 27 25 23 21 18 16 18 20 19 18 20 19 18 17 13 8 4 3 5 6 7 12 16 18 22 25 23 20 19 17 18 18 15 19 24 20 11 7 11 9 5 8 10 9 10 11 8 5 8 9 7 6 5 6 5 4 5 7 8 9 7 7 6 1 2 1 3 4 3 3 4 5 10 9 6 4 4 8 10 11 14 15 15 18 17 15 14
28 27 25 23 19 17 18 20 20 18 19 21 19 17 16 12 7 3 1 3 6 4 6 11 13 12 16 20 20 16 8 10 17 17 17 22 23 14 6 8 8 6 7 7 7 5 4 5 6 6 7 7 6 5 6 7 4 5 4 4 7 8 6 5 4 1 1 3 2 4 3 4 4 5 6 8 7 7 7 8 12 16 17 18 19 19 19 18
28 28 26 23 20 21 24 20 18 19 18 18 17 16 15 13 8 4 3 3 6 6 8 9 10 9 11 17 24 16 2 6 13 16 20 21 22 18 9 6 7 6 3 2 5 2 4 6 4 5 6 6 6 5 6 9 5 4 3 2 3 4 4 4 4 4 3 2 2 3 3 4 6 5 4 8 7 6 7 8 11 17 20 21 20 21 22 22
27 27 26 24 23 25 26 19 17 21 19 13 14 17 15 15 12 6 3 4 3 6 7 6 8 10 11 16 25 15 5 11 10 10 23 25 21 15 10 8 6 6 6 4 5 1 3 7 6 7 7 5 6 4 6 10 5 2 1 2 4 3 1 2 4 4 3 3 3 4 3 3 7 4 6 7 6 7 10 11 11 17 22 22 22 22 21 22
28 25 26 26 23 24 25 20 17 19 18 11 14 19 18 18 12 5 0 4 2 4 4 7 8 10 13 15 18 12 7 6 1 6 19 22 19 11 5 8 7 4 8 11 8 1 1 3 4 6 6 5 3 2 1 6 6 3 3 5 5 3 2 0 2 2 2 5 5 5 6 4 7 3 6 4 5 7 10 10 11 18 23 23 24 24 22 22
31 28 27 26 26 27 27 25 20 17 17 15 17 22 23 18 9 3 3 4 2 2 5 8 8 11 15 11 8 8 6 2 4 9 12 12 14 8 1 5 6 4 4 8 8 2 3 2 1 1 2 2 5 5 6 2 6 7 5 5 4 1 3 2 1 2 2 7 6 7 9 6 6 3 7 6 7 9 8 7 10 16 22 25 25 26 25 24
31 33 29 28 31 32 31 30 26 21 20 19 23 28 24 10 2 4 7 2 2 2 6 5 6 12 15 11 7 8 7 4 8 11 7 5 8 6 2 4 4 3 2 4 4 1 3 2 1 1 3 6 6 4 6 6 4 6 4 4 2 0 2 2 2 2 4 7 5 9 11 10 8 4 5 6 8 10 9 9 11 15 22 27 27 27 27 26
31 33 31 32 33 34 34 33 29 24 22 23 29 31 18 4 2 7 5 3 1 4 7 6 7 10 13 11 7 8 8 6 9 9 5 5 6 6 6 5 5 4 3 4 4 2 3 5 4 3 4 7 5 3 4 5 2 3 4 5 3 1 0 1 3 3 6 7 3 6 8 9 9 7 7 5 2 2 4 10 17 20 24 28 28 28 27 27
32 32 31 33 35 37 36 31 27 25 25 28 32 23 8 4 8 12 9 5 1 1 5 8 9 9 11 9 5 7 6 4 8 8 5 6 5 6 8 7 7 5 3 5 5 3 3 5 7 4 3 10 9 5 3 1 3 6 6 6 5 4 3 4 4 3 5 5 3 1 2 3 4 5 9 6 1 4 5 8 21 25 27 27 27 28 27 27
35 33 34 35 36 38 35 30 29 28 30 34 29 13 6 8 9 11 13 10 2 1 4 8 10 10 9 7 5 8 5 2 8 8 5 7 5 5 8 9 12 7 1 3 4 5 4 4 8 7 4 12 13 10 8 5 5 8 6 6 6 5 3 4 4 4 3 1 3 1 2 3 2 2 4 1 5 6 9 12 19 22 23 24 25 26 26 28
37 36 36 36 36 36 35 32 31 30 34 35 21 8 10 10 9 9 11 9 4 3 5 7 10 9 7 5 5 8 5 2 8 7 5 8 6 7 8 9 13 9 4 4 3 6 7 5 7 8 6 14 14 12 9 7 3 5 4 5 6 4 2 2 2 2 1 1 2 3 3 4 3 1 1 4 6 6 8 16 21 21 22 25 25 27 28 29
36 38 39 39 40 39 37 37 34 31 36 31 12 8 13 10 7 6 7 9 7 6 8 7 6 6 6 4 4 7 4 2 8 6 4 7 6 8 8 7 13 13 9 8 2 3 6 3 2 4 4 9 7 7 9 7 3 3 4 6 5 2 1 3 2 1 1 4 4 4 4 4 1 1 2 5 4 3 3 11 19 20 23 25 25 28 30 31
36 38 40 43 43 41 40 41 37 35 37 24 9 8 10 8 8 5 6 11 12 12 10 6 6 7 7 5 5 8 5 2 7 6 3 5 5 9 11 8 13 17 15 10 3 1 5 2 2 1 2 2 2 1 3 1 3 4 5 5 3 3 1 1 2 1 2 7 4 5 6 4 3 4 2 5 4 3 4 6 13 17 21 23 24 28 30 31
38 39 41 46 46 43 44 42 39 41 33 15 9 10 6 8 11 6 5 10 12 14 10 7 8 8 8 7 6 9 8 5 8 6 4 5 3 8 12 9 11 19 20 14 6 2 3 3 3 1 1 1 3 1 1 2 3 3 2 2 3 1 2 3 2 3 4 6 5 4 6 6 7 6 4 7 10 9 7 7 9 14 20 23 24 27 28 30
40 34 35 46 49 46 46 45 46 44 25 7 9 12 7 9 13 8 7 8 9 11 10 9 8 6 8 8 6 9 10 8 9 7 5 5 3 6 11 9 9 16 22 20 9 2 2 3 2 3 2 2 2 2 4 3 1 2 3 3 1 2 3 4 3 2 3 5 5 3 3 4 7 7 10 13 13 13 12 10 10 14 22 26 27 29 31 32
39 23 22 40 47 46 49 48 45 34 15 7 11 11 8 9 12 14 16 11 5 5 7 9 9 7 6 5 5 7 7 6 8 7 4 5 4 3 7 9 7 9 16 17 9 2 1 2 3 2 3 2 2 4 9 9 7 4 2 3 3 2 1 0 2 2 3 3 4 3 5 5 3 3 10 16 14 14 16 14 12 16 24 27 28 31 34 36
37 14 12 29 36 43 49 40 26 16 8 8 10 9 9 7 7 14 20 14 5 1 2 4 7 7 6 5 5 5 5 4 6 5 3 6 6 3 2 3 5 6 6 6 6 4 2 2 3 1 1 3 3 5 8 8 8 8 7 7 8 6 3 2 4 4 4 4 3 3 6 6 3 3 2 8 10 12 17 16 14 19 26 27 28 32 34 36
28 8 6 19 26 41 45 23 9 10 8 10 13 10 8 5 5 12 17 13 5 1 0 1 2 5 6 4 3 4 6 4 5 6 4 7 8 5 1 1 7 11 8 3 3 2 2 1 2 2 3 3 2 1 3 2 2 2 4 6 6 6 6 6 6 4 4 3 1 1 4 6 3 3 5 2 3 10 18 18 16 20 26 27 27 29 32 33
18 9 9 20 28 41 36 12 6 11 7 11 15 11 9 8 6 10 13 13 7 2 2 1 1 3 4 3 4 5 7 5 7 8 6 6 5 1 2 4 8 11 7 2 2 2 3 2 1 2 2 1 2 1 3 4 2 2 4 4 6 8 9 7 5 3 3 4 3 2 5 6 3 3 6 7 6 11 14 17 18 19 22 24 25 26 28 30
11 10 12 24 37 43 27 7 8 11 8 11 11 9 12 11 9 10 11 12 10 5 4 3 3 4 3 3 5 7 8 6 7 8 5 5 4 3 5 7 6 7 5 2 4 7 4 2 3 1 2 1 1 0 1 2 1 4 4 5 8 10 8 4 2 1 3 8 8 5 7 6 2 3 5 6 7 10 11 12 17 20 21 23 24 24 26 28
6 5 9 24 40 39 21 9 11 11 9 12 11 11 11 7 10 15 12 12 13 9 6 5 6 5 3 3 3 5 8 6 4 5 3 3 3 3 5 7 6 6 5 4 9 12 6 2 5 5 6 7 5 2 3 3 2 3 4 7 10 11 11 7 3 4 9 7 8 7 8 4 2 2 1 2 5 7 9 12 15 18 20 22 23 23 24 25
5 3 4 12 23 24 16 13 14 11 10 12 9 10 13 9 7 11 12 12 16 13 6 2 5 7 4 5 6 5 8 5 1 3 4 4 3 1 3 7 6 7 7 8 12 11 3 3 8 9 10 10 4 2 3 2 5 6 7 10 12 13 13 8 4 9 10 3 5 10 7 1 3 3 3 2 5 5 5 9 12 15 18 19 20 21 21 22
6 4 5 4 7 10 9 9 10 10 13 15 8 7 15 14 5 5 9 9 13 16 6 3 4 9 7 10 10 7 8 6 4 5 5 4 3 2 3 5 4 6 8 7 9 6 3 4 10 12 14 13 4 4 1 0 5 7 9 12 14 13 14 12 12 13 6 2 9 12 8 6 8 7 6 5 5 5 5 10 12 15 16 16 16 18 19 20
9 6 9 11 5 2 6 9 10 10 13 14 9 6 13 16 9 7 8 4 7 14 8 0 7 13 13 14 11 7 8 7 6 7 5 4 3 2 2 2 2 6 7 5 4 4 3 6 9 10 14 16 7 4 1 1 2 3 5 11 13 15 17 17 20 18 9 8 11 5 8 9 8 6 7 6 6 6 8 13 15 15 15 15 15 17 18 20
12 6 7 12 8 3 11 18 13 10 12 13 10 8 12 16 16 11 6 4 4 10 10 8 11 13 13 12 9 7 9 9 9 9 6 5 5 4 3 1 2 5 6 4 2 3 3 4 5 6 10 15 11 6 3 2 3 5 6 9 11 16 19 19 21 21 15 14 12 1 3 5 2 4 6 6 8 9 11 15 16 16 15 13 13 14 17 21
12 9 6 8 6 3 10 14 10 7 10 11 10 10 11 15 17 12 7 8 8 7 9 13 15 13 12 10 9 10 12 11 9 7 8 7 4 4 4 3 3 3 3 4 2 3 4 3 3 5 5 11 12 10 6 4 6 9 11 13 11 10 13 16 18 16 12 15 17 10 7 7 2 3 1 4 10 12 12 13 13 10 8 9 11 15 19 22
14 12 9 6 4 4 5 6 8 7 7 6 8 9 10 14 17 12 7 11 14 10 12 20 18 10 9 10 11 14 15 13 8 7 12 12 8 8 8 5 7 6 4 5 3 4 5 2 2 4 5 8 8 9 8 4 2 8 17 21 15 8 8 12 14 13 13 15 17 15 12 8 4 4 4 6 10 11 10 8 7 5 9 13 17 21 24 26
18 15 12 6 4 7 6 3 6 9 7 8 9 8 9 12 14 12 6 8 12 12 14 19 14 7 6 12 17 19 15 13 8 7 13 13 9 11 11 9 11 10 7 6 3 4 6 4 2 4 5 5 1 4 5 3 1 8 16 17 15 13 11 12 11 11 12 12 11 11 9 6 5 6 5 4 5 8 8 7 7 12 17 20 24 26 26 26
Wind_Direction
196 197 199 199 201 202 202 200 196 194 192 189 185 181 177 175 174 173 178 185 193 211 240 283 307 317 318 322 319 321 328 331 335 332 316 305 302 289 272 269 264 186 109 102 82 54 28 20 357 342 344 329 13 359 332 353 352 341 322 225 280 24 81 333 38 96 152 134 128 123 71 334 132 145 138 235 221 215 183 138 151 180 97 143 115 345 324 306
198 199 201 200 202 202 203 201 198 195 192 190 187 185 183 182 183 183 189 198 208 234 265 294 307 315 318 323 322 325 327 325 330 313 295 315 310 279 248 212 148 130 112 97 79 43 346 352 315 319 318 289 17 17 351 351 324 310 290 301 356 43 58 19 56 60 75 111 120 110 68 345 88 108 100 284 216 214 186 131 147 118 87 181 247 338 313 249
201 201 201 202 202 201 203 201 199 198 196 194 191 190 192 191 194 196 202 212 224 249 275 294 305 314 319 323 326 331 328 325 329 265 291 323 320 178 144 136 124 113 95 77 70 68 292 2 328 319 314 288 82 21 199 299 302 18 327 352 55 81 77 53 68 65 46 79 112 110 95 318 341 60 48 315 286 252 105 111 137 117 106 236 292 318 275 196
206 205 204 204 203 203 204 204 203 202 202 201 200 199 200 202 203 208 214 223 238 255 275 291 305 312 320 327 330 337 331 328 341 208 301 341 104 122 123 123 113 99 75 61 54 43 47 16 335 342 310 277 126 312 255 100 327 333 339 84 83 23 83 77 79 82 63 59 64 87 53 294 191 174 319 307 302 321 84 89 120 123 139 208 276 283 237 195
213 212 211 209 207 208 207 209 210 208 208 208 209 209 209 211 211 217 224 233 249 263 283 295 305 314 322 328 335 341 337 336 78 49 1 90 123 123 123 119 101 79 35 34 41 27 35 25 329 316 286 253 147 203 59 73 326 306 65 98 81 9 66 102 94 95 86 66 59 124 303 279 166 236 281 258 268 149 127 129 137 157 195 220 244 233 214 203
217 218 218 217 214 213 213 213 214 214 215 215 216 216 216 218 220 227 233 242 258 270 285 296 304 313 322 330 334 338 339 322 324 349 45 114 132 132 129 124 59 355 352 14 31 20 22 9 311 290 280 275 167 115 83 61 334 320 97 92 76 38 72 116 128 129 123 151 217 226 227 180 221 280 254 222 236 200 198 233 263 261 231 209 207 199 201 201
221 221 222 222 221 221 219 218 219 219 220 220 220 221 223 223 226 234 240 249 261 271 283 294 302 311 320 327 332 334 328 277 274 284 245 220 199 190 228 266 289 310 337 14 24 9 1 328 302 312 301 288 327 70 88 338 282 270 241 109 94 49 64 126 155 164 170 200 215 237 246 234 259 271 221 191 204 223 234 264 280 241 178 171 176 183 196 199
225 225 226 226 226 226 226 225 223 223 224 225 225 226 229 230 233 239 245 255 261 272 282 288 297 308 316 325 338 331 298 246 234 257 258 243 241 249 263 272 283 302 337 26 25 354 333 310 309 324 320 335 4 29 66 321 244 231 311 87 95 40 202 165 173 193 202 208 224 239 241 248 247 237 197 175 189 224 237 250 235 169 155 164 168 178 205 228
230 229 230 230 230 229 229 230 228 228 228 229 231 231 235 237 240 245 249 258 264 273 280 286 296 304 309 323 341 316 283 231 224 257 268 255 252 256 264 271 280 302 350 350 13 21 328 328 343 340 332 340 346 343 71 45 255 298 14 18 343 263 219 196 193 213 216 214 220 218 235 252 235 215 199 176 194 221 220 201 173 149 150 165 176 198 240 261
235 233 232 232 233 233 232 232 232 232 232 232 235 236 240 242 245 250 255 261 266 272 279 288 295 300 305 319 322 282 259 235 249 267 272 266 258 258 262 267 277 289 360 316 326 40 306 307 306 301 307 296 293 319 75 82 336 360 352 328 296 275 258 226 216 230 225 216 207 197 244 250 197 195 212 183 205 214 182 169 154 144 161 192 218 233 243 249
236 235 234 233 233 234 234 235 234 234 234 235 237 238 242 246 250 254 259 265 269 276 284 288 295 296 297 294 254 253 249 253 267 279 283 280 270 266 266 266 274 270 194 276 298 236 232 256 256 264 289 305 318 225 181 289 313 357 337 311 278 260 251 233 226 232 221 213 204 204 256 228 159 204 211 183 197 186 163 160 151 153 179 216 234 238 242 240
239 236 234 234 234 235 235 236 237 237 236 236 237 239 242 246 252 256 260 266 270 278 284 288 292 290 287 275 254 253 257 261 269 277 280 283 279 271 267 268 266 264 233 195 265 256 233 229 220 237 282 313 327 250 107 345 311 331 307 292 281 265 248 227 217 212 201 196 194 189 263 229 184 186 166 174 178 160 155 158 153 168 195 222 236 231 231 232
244 239 236 235 234 234 235 235 237 238 237 237 238 240 243 247 251 254 257 263 269 275 282 286 288 286 284 273 261 261 260 263 269 272 273 274 273 266 260 262 259 258 244 213 245 266 241 216 200 225 285 293 309 294 17 79 152 299 262 230 285 296 267 222 198 177 171 173 178 166 255 245 188 147 150 169 170 155 157 163 162 175 190 204 223 235 236 235
245 242 239 236 235 234 234 235 236 237 238 238 239 241 245 247 249 252 255 261 266 271 277 279 282 285 276 267 269 266 260 262 266 266 268 267 262 259 257 257 257 254 252 250 258 262 237 209 201 230 252 249 298 327 295 219 178 274 275 219 228 270 294 212 154 149 157 174 176 170 267 258 143 141 162 174 170 162 164 170 173 177 188 202 206 229 249 246
243 242 240 238 237 234 233 234 235 236 237 238 240 243 244 245 247 250 254 258 263 267 273 276 277 278 270 267 268 264 260 259 258 260 260 256 253 255 254 253 256 257 259 259 253 243 224 189 201 235 202 199 243 292 270 245 202 209 246 257 227 198 243 147 147 165 170 172 181 182 265 236 142 154 170 175 173 171 172 176 179 182 189 203 203 209 233 242
242 238 238 239 238 235 232 231 232 234 235 237 239 241 241 243 244 247 252 255 260 264 266 274 270 260 261 263 259 260 262 255 254 261 257 250 245 242 251 256 258 257 252 242 227 215 197 177 212 238 163 178 206 211 253 272 250 204 188 250 256 213 219 163 167 193 168 135 188 203 246 280 134 162 174 180 179 178 184 182 181 189 189 195 200 198 217 237
240 236 235 236 236 235 232 229 230 231 233 235 237 240 240 241 242 245 249 249 253 255 250 254 259 258 257 255 256 256 256 254 255 260 255 246 236 234 248 255 247 241 211 196 197 190 188 181 204 235 211 222 222 187 205 253 248 220 186 219 244 242 234 192 183 216 182 161 206 210 233 267 153 163 178 187 183 183 194 189 182 191 191 193 199 197 207 216
237 235 233 234 234 233 232 231 228 228 231 232 235 238 237 239 242 243 245 244 240 246 251 229 207 263 260 238 236 241 247 253 256 256 250 237 230 229 226 210 212 190 163 182 191 182 187 184 175 247 237 216 219 192 184 214 221 231 214 210 249 254 243 235 176 185 180 197 236 206 224 246 181 165 181 189 187 189 197 193 186 190 192 196 200 197 198 199
235 234 232 232 232 230 230 229 226 226 226 227 228 228 232 234 239 247 244 230 206 195 250 214 194 196 266 219 217 226 239 249 252 248 237 223 215 202 181 175 185 169 166 176 183 183 179 166 156 218 239 212 207 205 212 227 239 271 285 306 289 285 267 264 116 166 177 190 234 222 236 249 202 171 182 191 190 194 202 191 183 186 191 198 198 198 198 202
232 232 231 230 231 229 228 226 224 223 221 221 214 209 218 213 217 247 229 221 224 229 240 221 208 224 242 215 214 219 225 232 233 231 229 216 197 184 175 170 174 185 204 180 166 181 174 174 201 209 225 221 213 213 224 244 260 279 304 307 283 290 280 277 122 163 163 157 228 234 251 261 244 196 182 188 189 200 206 186 178 185 190 194 193 196 198 206
230 230 229 228 229 228 226 224 221 220 219 215 203 190 189 199 197 196 206 231 248 246 243 241 235 239 244 237 227 224 214 200 205 217 221 200 178 171 174 172 168 197 229 206 157 140 178 207 221 219 227 236 242 235 227 232 250 264 270 278 279 270 268 274 135 155 114 103 243 257 267 264 261 238 177 176 184 203 204 187 184 190 190 193 192 192 196 209
229 228 226 224 224 225 225 223 220 220 216 210 204 195 194 206 208 206 224 266 269 256 246 240 235 238 242 238 230 224 207 183 193 210 201 178 175 176 175 178 189 195 206 205 154 103 223 233 230 229 234 238 248 262 251 234 237 250 250 274 272 261 272 287 112 149 122 124 250 267 272 264 264 256 176 175 190 205 206 198 194 193 188 188 189 191 197 209
227 225 223 221 219 221 222 220 219 219 214 211 210 207 209 213 215 231 267 291 278 261 245 238 233 230 228 229 230 225 214 204 207 212 199 177 178 188 180 175 206 211 191 198 190 190 222 229 224 225 231 240 236 237 265 272 254 240 233 242 249 245 257 263 156 193 181 209 264 294 285 268 267 271 186 187 196 195 196 194 190 188 187 189 192 195 201 206
223 221 219 217 214 215 217 220 224 223 218 216 217 213 213 215 218 241 266 275 278 255 242 242 237 230 223 222 230 226 220 223 221 211 201 188 180 185 189 189 205 216 206 203 206 219 233 240 207 205 214 229 229 209 198 231 255 234 221 224 237 232 232 238 203 170 202 238 245 286 292 267 235 234 218 190 187 175 175 179 176 176 178 184 189 191 198 205
219 218 216 212 208 208 212 225 229 224 219 217 219 215 210 209 211 237 270 270 264 234 233 233 227 230 223 218 225 220 218 227 224 212 204 199 190 181 192 199 202 215 217 212 213 232 246 243 200 189 199 197 209 221 185 183 236 245 224 215 219 231 247 258 258 107 345 280 210 174 269 267 225 224 214 169 165 176 175 185 191 184 181 184 185 185 186 191
216 215 213 206 202 201 210 227 232 223 218 219 218 211 207 200 190 201 169 296 269 200 178 196 203 219 211 203 201 197 214 229 215 210 207 205 199 192 192 193 199 222 220 215 221 240 241 205 186 178 178 172 197 231 185 172 212 251 251 226 204 217 245 275 296 288 234 273 222 151 223 271 306 269 206 168 187 199 183 198 206 200 199 198 195 196 193 187
212 210 208 199 196 203 210 221 228 216 213 220 213 197 195 184 167 158 124 299 264 172 144 169 182 188 189 190 185 180 194 163 173 192 195 195 197 197 205 190 188 220 227 225 230 225 118 151 165 152 160 174 198 220 186 169 185 238 280 358 129 185 227 236 260 255 236 294 281 175 202 274 285 264 176 155 173 198 205 212 209 202 202 204 203 203 202 196
211 207 203 196 200 212 212 217 226 215 208 212 200 184 178 169 159 140 131 272 249 132 137 160 163 165 158 174 181 171 121 141 148 186 185 185 190 194 213 214 196 193 193 210 225 249 114 164 171 163 176 203 200 215 195 173 176 236 245 52 88 110 238 221 229 251 277 309 258 194 173 268 268 215 144 149 171 207 218 212 208 201 196 198 199 198 200 200
208 205 203 198 205 218 215 214 221 215 208 194 181 175 164 156 150 119 147 242 182 110 133 147 143 150 142 159 183 170 129 144 128 179 179 183 187 181 207 226 234 217 200 216 227 272 57 172 177 176 198 216 177 20 288 181 180 184 139 79 72 77 54 26 222 223 281 259 230 193 177 222 267 218 149 171 202 216 220 208 201 196 192 193 191 189 193 195
206 202 205 201 204 214 215 211 207 204 197 181 173 165 154 151 144 126 203 227 235 98 119 143 149 154 150 152 180 174 150 119 87 135 164 184 186 183 158 194 237 267 225 231 238 219 104 100 323 227 195 147 120 53 11 64 142 149 135 90 79 76 67 40 250 145 266 256 213 194 198 210 265 222 163 193 215 205 203 187 183 186 187 189 188 186 187 188
208 197 202 208 208 212 213 208 200 193 183 172 166 158 150 142 108 184 201 251 327 123 119 142 149 149 160 162 170 185 177 140 130 140 154 176 180 196 196 165 201 256 292 272 257 219 132 125 8 166 138 112 107 66 17 23 112 138 128 109 106 8 58 34 270 177 236 255 208 193 202 208 237 237 179 204 213 197 188 175 173 178 182 184 184 185 185 185
212 198 204 216 216 216 214 209 201 186 174 168 165 159 152 131 220 216 206 75 59 183 143 149 162 160 174 178 172 177 172 157 160 162 161 166 178 194 202 191 164 170 245 235 218 225 220 207 170 153 174 163 137 88 30 358 333 157 133 124 131 196 93 222 212 195 231 254 243 193 200 219 236 243 237 240 240 193 175 173 175 175 178 180 180 182 183 185
213 206 210 219 220 220 216 211 202 183 170 168 166 163 160 183 203 211 203 164 173 204 129 142 170 175 176 182 171 157 163 164 166 169 163 166 188 203 211 216 193 192 219 194 187 193 243 226 180 158 207 189 176 166 179 258 209 185 160 152 168 179 221 235 210 225 237 245 289 236 175 256 278 264 246 238 65 39 53 151 175 174 174 175 176 178 180 184
213 212 216 220 222 222 215 207 199 185 173 169 165 165 199 212 211 207 203 200 191 94 131 143 158 168 178 186 161 149 161 161 162 169 169 171 195 207 207 217 214 220 201 167 190 177 219 264 185 171 180 181 188 203 190 148 172 196 179 176 191 178 200 222 203 234 245 253 304 306 138 196 210 264 260 77 73 66 74 122 155 161 166 170 171 174 179 184
213 213 216 220 222 220 215 209 199 187 177 172 166 177 197 207 220 211 207 201 172 134 145 143 146 162 190 193 151 164 184 162 164 176 186 187 204 203 197 206 205 203 174 190 214 176 212 262 176 163 156 166 189 215 182 127 157 210 175 193 217 197 207 241 209 205 184 346 284 224 231 225 192 185 114 81 64 62 89 122 137 146 159 165 168 174 180 184
217 213 215 220 220 215 214 211 201 189 182 177 174 199 198 207 208 187 189 187 177 150 138 144 155 168 190 178 159 189 201 123 163 179 205 207 225 216 203 197 193 196 192 186 193 170 196 259 133 128 133 162 188 215 179 152 167 188 175 200 205 138 180 241 262 74 113 273 255 179 246 283 270 283 164 127 91 55 103 132 136 147 158 164 171 177 182 185
223 217 216 220 220 216 213 212 203 190 187 187 200 207 200 218 209 175 184 185 169 153 151 170 183 178 188 183 176 184 174 118 167 174 181 194 228 218 210 203 188 198 205 196 214 206 169 221 267 130 142 176 16 12 187 144 99 137 182 193 132 60 36 195 270 337 192 255 256 174 214 229 197 240 190 146 157 179 211 162 138 147 161 169 178 182 184 186
226 221 219 222 222 215 211 213 205 193 191 198 216 216 214 219 212 201 197 185 162 159 177 208 191 179 193 194 178 171 164 161 175 177 173 182 218 202 197 203 192 198 204 200 219 258 160 205 272 353 95 112 38 72 201 348 51 109 205 221 114 149 216 152 207 248 208 241 271 213 209 207 203 210 174 183 196 185 186 183 159 161 171 178 183 185 186 186
226 218 218 223 221 215 213 211 201 192 194 206 204 211 221 213 213 209 196 186 168 171 193 210 197 192 204 194 161 162 175 177 170 174 184 189 212 190 183 192 200 200 197 195 206 245 151 192 250 320 341 111 90 187 182 194 186 45 339 295 113 156 196 165 186 233 200 235 269 259 219 220 217 195 176 193 200 180 174 185 187 180 180 183 185 186 187 188
219 211 222 223 218 217 212 203 193 188 195 213 201 205 208 206 212 207 202 199 186 185 201 203 197 197 204 188 149 156 178 181 171 178 194 188 198 205 184 186 196 192 187 190 197 180 145 200 205 302 331 127 155 205 191 188 189 185 210 215 195 175 119 113 237 209 195 237 257 261 266 254 237 196 186 193 191 177 177 184 189 184 184 187 188 188 189 189
212 207 227 217 215 214 202 191 187 188 198 214 211 212 200 194 203 201 203 210 226 251 207 207 205 195 184 177 161 150 154 171 182 181 190 195 202 222 201 183 182 160 147 169 192 184 182 195 174 172 233 205 213 209 200 197 190 193 198 192 195 190 160 215 244 205 198 233 214 227 264 258 255 324 239 196 184 180 183 180 178 182 184 187 191 192 192 192
209 220 209 191 203 204 191 181 189 189 193 213 214 214 196 180 190 191 193 202 215 240 243 284 228 192 184 178 157 139 142 165 195 190 200 211 204 199 210 98 150 148 126 111 191 161 79 128 191 199 203 220 259 200 173 157 150 221 235 201 190 189 181 202 225 196 184 224 183 150 274 271 264 339 352 349 130 163 178 175 168 177 184 186 190 194 195 195
202 212 184 173 192 196 187 182 200 187 202 214 210 216 205 198 203 187 185 193 191 151 172 239 233 196 198 156 141 158 156 169 195 192 201 215 208 162 100 122 136 141 129 110 171 123 88 125 196 267 298 337 353 40 59 52 67 265 259 203 191 205 199 203 218 170 171 216 189 170 251 265 292 10 7 7 65 117 151 165 164 168 177 184 187 191 195 196
196 193 176 174 186 190 187 189 189 191 209 199 198 216 211 211 213 197 189 191 189 173 171 194 204 208 209 148 149 172 173 184 204 196 193 198 190 107 112 133 138 145 154 165 157 162 172 153 137 175 283 277 240 339 339 334 204 216 227 202 212 217 201 209 239 136 242 224 181 183 241 253 304 6 6 15 63 86 100 134 158 164 169 179 185 189 194 196
218 203 187 182 186 187 192 207 192 192 201 192 196 206 203 214 217 209 203 191 193 194 185 198 193 176 165 147 143 173 188 201 205 192 202 201 178 143 150 166 168 164 175 167 151 157 171 177 162 185 223 227 222 209 217 215 183 213 215 197 216 217 200 207 211 210 241 223 164 198 242 264 348 356 360 44 82 85 84 105 136 157 164 174 182 188 193 195
213 215 207 194 197 200 209 212 198 192 192 193 200 202 203 211 211 208 207 197 197 195 179 166 171 159 152 168 168 184 204 215 165 165 196 190 166 109 165 179 183 172 167 163 158 154 143 207 199 208 227 232 220 196 224 155 145 198 208 193 208 215 206 208 212 217 228 204 196 224 216 207 282 241 215 190 124 117 120 117 126 144 157 168 176 184 191 197
201 198 187 183 221 224 225 219 202 197 194 190 185 188 201 208 200 187 204 205 195 189 177 40 169 180 183 183 190 199 193 194 187 179 182 164 130 72 138 159 174 170 156 157 170 153 110 215 215 219 236 244 211 143 236 73 173 204 208 200 207 209 204 209 221 223 200 155 245 237 179 186 229 209 207 207 153 136 154 159 156 151 154 164 173 183 191 198
210 210 195 196 208 203 215 217 203 201 196 186 186 187 192 201 202 188 196 201 182 182 178 243 208 202 194 187 193 198 181 186 204 193 174 151 143 126 127 127 162 168 153 149 170 141 135 228 222 210 234 248 236 167 118 42 230 232 215 212 210 204 203 209 222 227 205 203 243 222 159 206 223 189 203 202 176 171 153 161 171 164 161 170 175 183 193 201
214 228 197 198 205 197 213 212 203 204 195 178 189 202 191 198 203 194 171 124 166 192 191 207 215 207 200 191 182 183 183 187 203 201 181 171 172 160 152 170 182 170 156 152 175 154 168 233 212 190 234 251 245 227 184 161 260 273 247 232 220 212 210 210 222 229 221 228 245 150 121 251 233 162 210 208 183 167 135 141 156 157 163 174 183 196 207 213
213 224 197 189 205 231 221 208 191 210 209 184 190 201 194 198 200 193 169 159 179 193 191 213 221 203 195 191 180 199 205 193 197 191 168 167 177 176 190 181 145 153 167 163 165 174 189 217 145 147 236 256 244 237 225 210 245 261 257 248 235 222 216 217 227 230 224 238 246 239 244 263 223 133 159 164 159 147 128 129 136 146 175 195 208 223 228 228
223 221 204 191 202 196 203 191 174 200 219 200 198 196 193 203 199 191 190 194 198 187 184 208 217 193 183 193 199 215 213 196 193 170 167 181 185 181 194 171 138 147 179 177 159 160 185 218 99 133 222 252 240 228 223 211 244 266 261 250 233 216 214 219 225 222 214 226 236 238 243 241 191 118 106 131 142 139 136 134 137 195 231 232 234 237 239 236
232 232 220 213 213 186 177 175 185 200 209 205 207 197 193 207 201 187 196 218 215 209 206 211 203 155 168 200 210 220 211 191 189 169 173 187 177 168 181 174 158 160 166 167 162 163 176 189 158 165 213 257 254 174 176 126 100 258 258 245 219 208 217 223 226 221 214 216 223 232 234 209 156 136 140 154 149 143 150 165 206 235 236 235 239 242 241 235